Tracking 19562 objects as of 25-Mar-2019
HD Live streaming from Space Station
objects crossing your sky now

COSMOS 1946 (GLONASS)

Track COSMOS 1946 (GLONASS) now!
COSMOS 1946 (GLONASS) is classified as:


NORAD ID: 19163
Int'l Code: 1988-043A
Perigee: 19,130.5 km
Apogee: 19,143.5 km
Inclination: 64.2 °
Period: 675.7 minutes
Semi major axis: 25507 km
RCS: 0.9564 m2 (medium)
Launch date: May 21, 1988
Source: Commonwealth of Independent States (former USSR) (CIS)
Launch site: TYURATAM MISSILE AND SPACE COMPLEX (TTMTR)
aabbcc
Your satellite tracking list
Your tracking list is empty




NASA's NSSDC Master Catalog

Two Line Element Set (TLE):
1 19163U 88043A   19083.82364704 +.00000004 +00000-0 +00000-0 0  9992
2 19163 064.2056 164.0945 0002538 141.9842 221.2322 02.13102661239315
Source of the keplerian elements: AFSPC